Showing default

HULIANWANG DIGUI-11, 62971

Orbit data source: Space-Track

HULIANWANG DIGUI-11, 62971 is a payload satellite owned by Zhongguo Xingwang (CN) in LEO that was launched on Tue, 11 Feb 2025 UTC via a CHANG ZHENG 8A launch vehicle from the Wenchang Satellite Launch Center (WSC). Payload-class satellites include a variety of spacecraft equipped with specific instruments for various scientific and technological missions. These include communications satellites like Starlink; space stations such as the ISS; scientific satellites like the Hubble; Earth observation satellites from companies like Planet Labs, Umbra, and HawkEye 360; GPS; miniature CubeSats for education and research; and military/defense satellites.

Loading next visibility...
Identifier
62971, 2025-030A
Orbit
LEO
Country
Flag of CNCN / PRC
Related business
Manufacturer
CAST
Mission
Operational Civil Communications
Bus & Motor
XINGWANG C, Unknown motor
Mass
~700 kg wet, ~700 kg dry
Launch date (UTC)
2025-02-11 (1 year ago)
Launch vehicle
CHANG ZHENG 8A
Launch site
Wenchang Satellite Launch Center (WSC)
Object type
Payload
Rocket body
Debris
Shape & HBR
Box + 2 Pan, 2.1 m
Radar Cross Section
5.935 m², Large (>1 m²)

Expand to show TLE details & history
Last TLE update: 9 hours ago

TLE from 9 hours ago
0 HULIANWANG DIGUI-11
1 62971U 25030A   26104.93408995 -.00000079  00000-0  96209-4 0  9992
2 62971  49.9991 102.6934 0001208 310.8891  49.1876 13.29326519 57440
Epoch: 2026-04-14T22:25Z
TLE epoch observation values (Epoch: 2026-04-14T22:25:05.371Z)
Latitude
-0.00005°
Longitude
-76.68224°
Altitude
1,149.216 km
Speed
7.28 km/s
True Right ascension
06h 50m 46s
True Declination
0° 00' 00"
Sunlit
Object was in daylight at epoch
Visualization orbit readout
Latitude
Unknown
Longitude
Unknown
Altitude
Unknown
Speed
Unknown
Apparent Right ascension
Unknown
Apparent Declination
Unknown
Sunlit
N/A
Visualization observer readout
Local Sidereal Time
14:20:07
Azimuth
Unknown
Elevation
Unknown
Doppler factor
Unknown
Orbital elements
Apogee altitude
1,150.92 km
Perigee altitude
1,149.101 km
Semi-major axis
7,528.147 km
Eccentricity
0.00012
Inclination
49.9991°
RAAN
102.6934°
Arg. of periapsis
310.8891°
True anomaly
49.19808°
Mean anomaly
49.1876°
Eccentric anomaly
49.19284°
Mean motion
3.32285 °/min
Orbital period
108.34 mins
BSTAR
0.000096209
Loading maneuver chart data...
Computing Atmospheric mass density...
Loading historical data...
Loading historical data...
Loading historical data...
Loading historical data...
Loading historical data...
Loading historical data...
Loading historical data...

Documentation

Showing up to 5 results
|